Weather Roundup
Issued by NWS Corpus Christi, TX

Home | Current Version | Previous Version | Text Only | Print | Product List | Glossary On
Versions: 1 2 3 4 5 6 7 8 9 10 11 12 13 14 15 16 17 18 19 20 21 22 23 24 25 26 27 28 29 30 31 32 33 34 35 36 37 38 39 40 41 42 43 44 45 46 47 48 49 50
000
ASUS44 KCRP 230110
HRRCRP

SOUTH TEXAS REGIONAL WEATHER ROUNDUP
NATIONAL WEATHER SERVICE CORPUS CHRISTI TX
800 PM CDT FRI MAY 22 2015


TXZ229>244-230200-
...CORPUS CHRISTI AREA OBSERVATIONS...

CITY           SKY/WX    TMP DP  RH WIND       PRES   REMARKS
CORPUS CHRISTI CLOUDY    81  75  82 SE15      29.99S
NAS CORPUS CHR CLOUDY    80  76  87 SE17      30.00R
ROCKPORT       CLOUDY    81  75  82 SE17      30.01R
KINGSVILLE NAS MOCLDY    82  78  88 SE12      29.98R HX  91
ALICE          CLOUDY    82  75  79 SE13G43   29.98R
FALFURRIAS     MOCLDY    83  75  78 E8        29.96R HX  90
$$

...VICTORIA AREA OBSERVATIONS...

CITY           SKY/WX    TMP DP  RH WIND       PRES   REMARKS
VICTORIA       CLOUDY    77  74  90 E13       30.03S
BEEVILLE       FAIR      80  77  92 SE10      30.00R
PLEASANTON     MOCLDY    81  73  77 E9        29.99S
SAN ANTONIO    MOCLDY    78  73  84 SE13      30.03R
$$

...LAREDO AREA OBSERVATIONS...

CITY           SKY/WX    TMP DP  RH WIND       PRES   REMARKS
LAREDO         PTCLDY    87  72  61 SE13      29.96R HX  93
COTULLA        TSTM      81  76  84 E8        29.96R
DEL RIO        MOCLDY    82  70  66 SE12G21   29.92F
MCALLEN        MOCLDY    85  74  69 SE10      29.95S HX  92
HEBBRONVILLE     N/A     82  74  76 E14       29.98R
$$

...OTHER TEXAS OBSERVATIONS...

CITY           SKY/WX    TMP DP  RH WIND       PRES   REMARKS
BROWNSVILLE    MOCLDY    81  74  79 SE10      29.97S
HOUSTON        MOCLDY    75  69  81 E10       30.09S
COL. STATION   PTCLDY    76  69  79 E10       30.07S
AUSTIN         LGT RAIN  77  72  84 E9        30.04R
WACO           CLOUDY    74  68  81 E7        30.06S
FORT WORTH     CLOUDY    66  63  90 E5        30.08R
WICHITA FALLS  CLOUDY    59  57  93 E12       30.09S
LUBBOCK        DRZL/FOG  60  59  96 SE15      30.04S VSB 3/4
EL PASO        PTSUNNY   88   5   4 SW20      29.84F
$$

...MARINE OBSERVATIONS...

STATION/POSITION TIME  SKY/WX   TEMP    WIND        PRES    VSBY  WAVE   SWELL
                                AIR SEA DIR/SP/G                  HT/PER HT/PER
                 (UTC)          (F)     (DEG/KT/KT) (MB)    (MI)  (FT/S) (FT/S)
PORT ARANSAS     0100            81 81  130/ 15/ 17 1016.5R
BUOY 90 E PORT A 0050            81 80  150/ 12/ 14 1017.4R         4/ 6   2/ 6
BUOY 45 SE BAFFI 0050            81 81  140/ 14/ 16 1015.1F         4/ 6
BUOY 200 E PT IS 0050            81 82  110/ 12/ 14 1017.2R         2/ 6   2/ 6
BUOY 15 E GALVES 0050            79 80  100/ 16/ 17 1018.1R         3/ 4
$$


USA.gov is the U.S. government's official web portal to all federal, state and local government web resources and services.